Zurück zum Katalog

GLOBALSTAR M038

AktivKommunikationLEO
NORAD 25624·PAYLOAD·🇺🇸 United States

Gestartet Feb 9, 1999 von Baikonur Cosmodrome

Loading…

Nächste Überflüge (nächste 24 Stunden)

TLE

AktuellSource: Space-Track

Epoche: Sep 14, 2026, 05:56 UTC

1 25624U 99004D   26257.24778240 -.00000081  00000-0  11993-3 0  9993
2 25624  51.9959 203.8982 0001557 297.4204 210.2012 12.32550035258365

Verfolge GLOBALSTAR M038 in Echtzeit mit AllMySat

Download on the App Store